WS Maaseik 1 Meer informatie WS Maaseik 1


WS Maaseik 2 Meer informatie WS Maaseik 2


Regen radar Meer informatie rain snow radar


Bezoek onze andere website:

Vorige versie
weerstation Maaseik


Bezoek ook eens deze sites:

Weerstation Geleen



Het weer levert geen direct gevaar op.    Er zijn geen waarschuwingen afgegeven.

15 daagse weersverwachting Bonn (DE)

  • Overzicht
  • Per uur
  • 15 dagen
  • Extra
  • Vergelijk
  • Kaarten
  • Dagkaart
  • Meer »
  • Info
  • Statistieken
  • Directe link
    Temp 6h Neerslag Wind  
 05:41     21:16    Daglengte: 15:35 Vandaag
20:00
24°
 
2
 05:39     21:18    Daglengte: 15:39 Morgen
02:00
19°
 
4
08:00
19°
 
4
14:00
28°
 
4
20:00
27°
 
4
 05:38     21:19    Daglengte: 15:41 Donderdag 19 Mei
02:00
20°
 
3
08:00
20°
 
4
14:00
27°
 
3
20:00
23°
17.5 mm
3
 05:37     21:21    Daglengte: 15:44 Vrijdag 20 Mei
02:00
18°
6.7 mm
1
08:00
19°
21.8 mm
3
14:00
22°
11.7 mm
2
warningclass
Locatie info
Region: Nordrhein-Westfalen
Latitude: 50.7324°N
Longitude: 7.1019°E
64 masl
Postcode: 53113
Temp/Neerslag /Baro Onweer/Dauwpunt
    Temp Baro 1h Neerslag Dauwpunt Wind UV Bewolking  
 05:41     21:16    Daglengte: 15:35 Vandaag
17:00
25°
1019.4 hPa   9.4°
2
Windvlaag: 3.7 m/s
62%
18:00
25°
1019.0 hPa   9.5°
2
Windvlaag: 3.6 m/s
46%
19:00
25°
1018.9 hPa   9.4°
2
Windvlaag: 3.6 m/s
48%
20:00
24°
1018.9 hPa   8.6°
2
Windvlaag: 3.8 m/s
55%
21:00
23°
1019.2 hPa   10.7°
2
Windvlaag: 3.8 m/s
57%
22:00
22°
1019.7 hPa   11.4°
2
Windvlaag: 5 m/s
50%
23:00
21°
1019.9 hPa   12.2°
3
Windvlaag: 5.8 m/s
25%
 05:39     21:18    Daglengte: 15:39 Morgen
00:00
20°
1020.0 hPa   13.7°
4
Windvlaag: 6.8 m/s
49%
01:00
20°
1020.0 hPa   14.0°
4
Windvlaag: 7.2 m/s
9%
02:00
19°
1020.1 hPa   14.0°
4
Windvlaag: 7.1 m/s
10%
03:00
19°
1020.2 hPa   14.0°
4
Windvlaag: 7.4 m/s
21%
04:00
18°
1020.4 hPa   13.6°
4
Windvlaag: 7.1 m/s
5%
05:00
18°
1020.3 hPa   13.3°
3
Windvlaag: 6.6 m/s
15%
06:00
17°
1020.7 hPa   13.0°
3
Windvlaag: 6.4 m/s
15%
07:00
18°
1021.0 hPa   12.6°
4
Windvlaag: 6.4 m/s
13%
08:00
19°
1021.4 hPa   12.1°
4
Windvlaag: 6.3 m/s
12%
09:00
21°
1021.4 hPa   11.8°
4
Windvlaag: 6.3 m/s
10%
10:00
23°
1021.5 hPa   11.6°
3
Windvlaag: 5.9 m/s
11%
11:00
25°
1021.5 hPa   11.7°
3
Windvlaag: 5.6 m/s
10%
12:00
27°
Voelt als: 26.6°
1021.4 hPa   11.4°
3
Windvlaag: 5.2 m/s
8%
13:00
28°
Voelt als: 27.4°
1021.0 hPa   11.9°
3
Windvlaag: 5.8 m/s
10%
14:00
28°
Voelt als: 27.7°
1021.1 hPa   14.3°
4
Windvlaag: 6.1 m/s
13%
15:00
28°
1020.8 hPa   15.4°
3
Windvlaag: 6.1 m/s
10%
16:00
28°
1020.3 hPa
63%
15.4°
3
Windvlaag: 5.2 m/s
14%
17:00
29°
1019.9 hPa
30%
15.4°
3
Windvlaag: 6.1 m/s
14%
18:00
29°
Voelt als: 28.5°
1019.6 hPa
18%
15.4°
3
Windvlaag: 6.3 m/s
11%
19:00
28°
1019.5 hPa
13%
15.3°
4
Windvlaag: 5.1 m/s
13%
20:00
27°
1019.5 hPa
13%
14.7°
4
Windvlaag: 4 m/s
14%
21:00
25°
1019.5 hPa
13%
13.2°
3
Windvlaag: 3.4 m/s
16%
22:00
23°
1019.7 hPa
13%
12.4°
3
Windvlaag: 4.5 m/s
12%
23:00
22°
1019.8 hPa
13%
12.4°
2
Windvlaag: 5.3 m/s
16%
 05:38     21:19    Daglengte: 15:41 Donderdag 19 Mei
00:00
21°
1020.0 hPa
13%
12.7°
3
Windvlaag: 6.1 m/s
16%
01:00
20°
1019.9 hPa
13%
12.9°
3
Windvlaag: 7.6 m/s
26%
02:00
20°
1019.4 hPa
13%
13.9°
3
Windvlaag: 8.5 m/s
38%
03:00
20°
1019.1 hPa
13%
14.5°
3
Windvlaag: 8.7 m/s
47%
04:00
19°
1018.9 hPa
13%
14.8°
3
Windvlaag: 9.1 m/s
41%
05:00
19°
1018.7 hPa
13%
15.1°
3
Windvlaag: 9.2 m/s
49%
06:00
19°
1018.7 hPa
13%
15.5°
3
Windvlaag: 9.7 m/s
28%
07:00
19°
1018.8 hPa
13%
15.7°
3
Windvlaag: 9.5 m/s
55%
08:00
20°
1018.9 hPa
13%
14.9°
4
Windvlaag: 10.2 m/s
61%
09:00
22°
1018.6 hPa
55%
14.3°
3
Windvlaag: 9.6 m/s
79%
10:00
24°
1018.3 hPa
75%
13.7°
3
Windvlaag: 8.9 m/s
74%
11:00
25°
1018.0 hPa
92%
14.8°
3
Windvlaag: 8.6 m/s
93%
12:00
25°
1018.9 hPa
77%
20.4°
4
Windvlaag: 10.7 m/s
95%
13:00
26°
1019.0 hPa
21%
23.8°
3
Windvlaag: 7.8 m/s
91%
14:00
27°
1018.6 hPa
34%
21.9°
3
Windvlaag: 6.4 m/s
88%
15:00
27°
1018.3 hPa 4.1 mm
34%
20.8°
3
Windvlaag: 6.4 m/s
70%
16:00
26°
1018.6 hPa 2.1 mm
100%
16.3°
1
Windvlaag: 2 m/s
50%
17:00
25°
1019.0 hPa 2.0 mm
98%
14.8°
2
Windvlaag: 1.4 m/s
75%
18:00
26°
1018.9 hPa 3.0 mm
29%
15.5°
2
Windvlaag: 3.3 m/s
94% warningclass
19:00
25°
1018.8 hPa 3.4 mm
72%
18.1°
1
Windvlaag: 3.5 m/s
75% warningclass
20:00
23°
1019.6 hPa 3.1 mm
83%
16.3°
3
Windvlaag: -0.4 m/s
89%
21:00
22°
1020.6 hPa 3.4 mm
100%
16.3°
1
Windvlaag: -0.9 m/s
83%
22:00
21°
1020.8 hPa 3.3 mm
39%
16.6°
1
Windvlaag: -1.7 m/s
57%
23:00
20°
1021.0 hPa
21%
16.9°
1
Windvlaag: -2.8 m/s
56%
 05:37     21:21    Daglengte: 15:44 Vrijdag 20 Mei
00:00
19°
1021.0 hPa
22%
16.3°
1
Windvlaag: -2.7 m/s
49%
01:00
19°
1020.5 hPa
21%
16.2°
1
Windvlaag: -0.9 m/s
49%
02:00
18°
1020.7 hPa
21%
16.4°
1
Windvlaag: 0.2 m/s
59%
03:00
18°
1020.4 hPa
22%
16.8°
1
Windvlaag: 0.5 m/s
61%
04:00
18°
1020.1 hPa 4.9 mm
88%
16.6°
1
Windvlaag: 1 m/s
85%
05:00
18°
1019.6 hPa 5.2 mm
100%
16.4°
1
Windvlaag: 1.4 m/s
86%
06:00
18°
1020.0 hPa 5.1 mm
92%
16.3°
2
Windvlaag: 4 m/s
81%
07:00
18°
1019.9 hPa 6.6 mm
100%
16.8°
2
Windvlaag: 4.2 m/s
78%
08:00
19°
1019.4 hPa
21%
17.0°
3
Windvlaag: 8.7 m/s
26%
09:00
20°
1019.1 hPa
24%
17.1°
3
Windvlaag: 6.8 m/s
65%
10:00
21°
1018.9 hPa
21%
19.3°
4
Windvlaag: 13.3 m/s
52%
11:00
22°
1017.9 hPa
21%
19.8°
3
Windvlaag: 4.6 m/s
82%
12:00
24°
1017.5 hPa
34%
18.7°
3
Windvlaag: 5.9 m/s
90%
13:00
24°
1016.6 hPa
100%
17.1°
3
Windvlaag: 7.2 m/s
96%
14:00
22°
1016.5 hPa 11.7 mm
100%
17.3°
2
Windvlaag: 6.9 m/s
98% warningclass
15:00
23°
1017.3 hPa 30.3 mm
100%
17.3°
6
Windvlaag: 14.2 m/s
85% warningclass
16:00
25°
1016.3 hPa 30.3 mm
100%
16.5°
7
Windvlaag: 10.9 m/s
95% warningclass
Temp/Neerslag /Baro Onweer/Dauwpunt
    Temp Baro Neerslag Dauwpunt Wind Bewolking  
 05:41     21:16    Daglengte: 15:35 Vandaag
17:00
25°
1019.4 hPa   9.4°
2
62%
20:00
24°
1018.9 hPa   8.6°
2
55%
23:00
21°
1019.9 hPa   12.2°
3
25%
 05:39     21:18    Daglengte: 15:39 Morgen
02:00
19°
1020.1 hPa   14.0°
4
10%
05:00
18°
1020.3 hPa   13.3°
3
15%
08:00
19°
1021.4 hPa   12.1°
4
12%
11:00
25°
1021.5 hPa   11.7°
3
10%
14:00
28°
Voelt als: 27.7°
1021.1 hPa   14.3°
4
13%
17:00
29°
1019.9 hPa   15.4°
3
14%
20:00
27°
1019.5 hPa   14.7°
4
14%
23:00
22°
1019.8 hPa   12.4°
2
16%
 05:38     21:19    Daglengte: 15:41 Donderdag 19 Mei
02:00
20°
1019.4 hPa   13.9°
3
38%
05:00
19°
1018.7 hPa   15.1°
3
49%
08:00
20°
1018.9 hPa   14.9°
4
61%
11:00
25°
1018.0 hPa   14.8°
3
93%
14:00
27°
1018.6 hPa   21.9°
3
88%
17:00
25°
1019.0 hPa 8.1 mm 14.8°
2
75%
20:00
23°
1019.6 hPa 9.4 mm 16.3°
3
89%
23:00
20°
1021.0 hPa 6.7 mm 16.9°
1
56%
 05:37     21:21    Daglengte: 15:44 Vrijdag 20 Mei
02:00
18°
1020.7 hPa   16.4°
1
59%
05:00
18°
1019.6 hPa 10.1 mm 16.4°
1
86%
08:00
19°
1019.4 hPa 11.7 mm 17.0°
3
26%
11:00
22°
1017.9 hPa   19.8°
3
82%
14:00
22°
1016.5 hPa 11.7 mm 17.3°
2
98% warningclass
17:00
26°
1016.0 hPa 90.8 mm 14.9°
8
56%
20:00
21°
1017.1 hPa 92.8 mm 18.0°
6
100% warningclass
23:00
14°
1020.1 hPa 11.9 mm 13.0°
3
1%
 05:35     21:22    Daglengte: 15:47 Zaterdag 21 Mei
02:00
13°
1020.8 hPa 12.3 mm 12.5°
2
1%
05:00
10°
1021.8 hPa 12.4 mm 9.0°
3
0%
08:00
13°
1022.8 hPa 12.4 mm 10.1°
3
0%
11:00
18°
1022.8 hPa 12.4 mm 8.6°
5
1%
14:00
20°
1022.4 hPa 12.4 mm 7.7°
4
1%
17:00
21°
1021.4 hPa 12.4 mm 7.4°
3
1%
20:00
18°
1020.9 hPa 12.4 mm 9.9°
2
1%
23:00
14°
1021.2 hPa 12.4 mm 7.8°
0
1%
 05:34     21:23    Daglengte: 15:49 Zondag 22 Mei
02:00
12°
1020.4 hPa 12.4 mm 7.7°
1
1%
05:00
11°
1018.2 hPa 12.4 mm 7.4°
2
1%
08:00
14°
1016.2 hPa 12.4 mm 9.0°
3
1%
11:00
20°
1014.8 hPa 12.4 mm 9.0°
3
1%
14:00
20°
1010.7 hPa 12.4 mm 10.8°
3
1%
17:00
21°
1009.7 hPa 12.5 mm 10.8°
4
1%
20:00
17°
1008.1 hPa 13.2 mm 15.4°
2
1%
23:00
16°
1008.6 hPa 13.5 mm 14.6°
1
1%
 05:33     21:25    Daglengte: 15:52 Maandag 23 Mei
02:00
15°
1009.9 hPa 14.5 mm 14.8°
3
1%
05:00
12°
1012.4 hPa 15.0 mm 12.0°
5
1%
08:00
12°
1014.7 hPa 15.0 mm 11.1°
4
1%
11:00
16°
1015.1 hPa 15.1 mm 11.0°
3
1%
14:00
19°
1014.8 hPa 15.3 mm 10.7°
3
1%
17:00
20°
1013.8 hPa 15.3 mm 10.6°
3
1%
20:00
18°
1013.9 hPa 15.3 mm 12.4°
1
1%
23:00
15°
1013.9 hPa 15.3 mm 10.8°
2
1%
 05:32     21:26    Daglengte: 15:54 Dinsdag 24 Mei
02:00
14°
1014.1 hPa 15.3 mm 10.5°
2
1%
05:00
14°
1014.2 hPa 15.3 mm 11.6°
1
1%
08:00
16°
1014.9 hPa 15.3 mm 11.8°
1
1%
11:00
20°
1014.9 hPa 15.3 mm 12.4°
2
1%
14:00
21°
1014.7 hPa 30.7 mm 10.9°
3
1%
20:00
20°
1014.1 hPa 30.8 mm 11.2°
2
1%
 05:31     21:27    Daglengte: 15:56 Woensdag 25 Mei
02:00
14°
1014.8 hPa 30.8 mm 9.4°
1
1%
08:00
17°
1013.9 hPa 30.8 mm 12.4°
2
0%
14:00
28°
Voelt als: 27.7°
1011.6 hPa 30.8 mm 14.0°
3
1%
20:00
26°
1008.8 hPa 30.8 mm 17.7°
2
1%
 05:30     21:28    Daglengte: 15:58 Donderdag 26 Mei
02:00
21°
1006.7 hPa 31.1 mm 17.3°
2
1%
08:00
19°
1010.8 hPa 38.3 mm 16.8°
5
1%
14:00
15°
1016.5 hPa 39.8 mm 13.9°
5
1%
20:00
15°
1019.1 hPa 49.6 mm 13.2°
4
1%
 05:29     21:30    Daglengte: 16:01 Vrijdag 27 Mei
02:00
12°
1023.6 hPa 50.3 mm 10.4°
2
1%
08:00
13°
1025.7 hPa 50.3 mm 8.9°
1
0%
14:00
21°
1017.9 hPa 0.3 mm 10.3°
2
58%
20:00
20°
1017.5 hPa 0.4 mm 11.5°
1
47%
 05:28     21:31    Daglengte: 16:03 Zaterdag 28 Mei
02:00
14°
1018.9 hPa 0.2 mm 10.3°
1
43%
08:00
15°
1018.8 hPa 0.1 mm 10.6°
1
48%
14:00
22°
1017.5 hPa 0.4 mm 10.5°
1
53%
20:00
20°
1016.5 hPa 0.5 mm 12.8°
0
54%
 05:27     21:32    Daglengte: 16:05 Zondag 29 Mei
02:00
15°
1017.3 hPa 0.7 mm 11.3°
0
61%
08:00
15°
1017.9 hPa 1.1 mm 11.0°
1
61%
14:00
21°
1017.3 hPa 0.8 mm 10.2°
1
59%
20:00
19°
1017.3 hPa 1.5 mm 11.3°
2
61%
 05:26     21:33    Daglengte: 16:07 Maandag 30 Mei
02:00
13°
1018.9 hPa 1.8 mm 10.1°
1
57%
08:00
14°
1019.1 hPa 0.4 mm 10.3°
1
56%
14:00
21°
1018.1 hPa 0.3 mm 9.2°
2
46%
20:00
19°
1017.3 hPa 0.4 mm 10.6°
1
49%
 05:26     21:34    Daglengte: 16:08 Dinsdag 31 Mei
02:00
13°
1018.6 hPa 0.3 mm 9.4°
1
48%
08:00
14°
1018.6 hPa 0.3 mm 9.8°
1
48%
14:00
20°
1017.4 hPa 0.5 mm 9.0°
1
48%
20:00
18°
1016.7 hPa 0.7 mm 10.3°
1
50%
 05:25     21:35    Daglengte: 16:10 Woensdag 01 Jun
02:00
12°
1018.3 hPa 0.1 mm 8.6°
0
36%
08:00
14°
1018.4 hPa 0.2 mm 9.0°
1
45%
14:00
21°
1017.3 hPa 0.7 mm 9.1°
1
46%
  CAPE Lifted Index Hail Supercell Tornado SRH 3km CL BTM PRES CL TOP PRES Swiss DWD icon SMHI TS
 05:41     21:16    Daglengte: 15:35 Vandaag
17:00 80 J/kg 0.4 K 0 % 0 % 0 % 0 m²/s² 0 0 1.3 2
18:00 82 J/kg -0.2 K 0 % 0 % 0 % 0 m²/s² 0 0 1.27 2
19:00 96 J/kg -0.4 K 0 % 0 % 0 % 0 m²/s² 0 0 1.13 3
20:00 81 J/kg -0.5 K 0 % 0 % 0 % 0 m²/s² 0 0 1.45 3
21:00 66 J/kg -0.5 K 0 % 0 % 0 % 0 m²/s² 0 0 1.84 3
22:00 21 J/kg -0.5 K 0 % 0 % 0 % 0 m²/s² 0 0 2.08 3
23:00 0 J/kg -1.0 K 0 % 0 % 0 % 0 m²/s² 0 0 1.01 2
 05:39     21:18    Daglengte: 15:39 Morgen
00:00 0 J/kg -0.8 K 0 % 0 % 0 % 0 m²/s² 0 0 0.79 2
01:00 0 J/kg -0.4 K 0 % 0 % 0 % 0 m²/s² 0 0 1.55 1
02:00 0 J/kg -0.3 K 0 % 0 % 0 % 0 m²/s² 0 0 1.77 2
03:00 0 J/kg 0.1 K 0 % 0 % 0 % 0 m²/s² 0 0 2.32 2
04:00 0 J/kg 0.7 K 0 % 0 % 0 % 0 m²/s² 0 0 2.98 2
05:00 0 J/kg 0.8 K 0 % 0 % 0 % 0 m²/s² 0 0 2.66 3
06:00 0 J/kg 0.8 K 0 % 0 % 0 % 0 m²/s² 0 0 2.75 2
07:00 0 J/kg 1.2 K 0 % 0 % 0 % 0 m²/s² 0 0 3.21 1
08:00 0 J/kg 1.4 K 0 % 0 % 0 % 0 m²/s² 0 0 3.29 1
09:00 0 J/kg 1.2 K 0 % 0 % 0 % 0 m²/s² 0 0 3.21 0
10:00 0 J/kg 0.5 K 0 % 0 % 0 % 0 m²/s² 0 0 2.78 0
11:00 80 J/kg -0.1 K 0 % 0 % 0 % 0 m²/s² 0 0 2.27 1
12:00 89 J/kg -0.2 K 0 % 0 % 0 % 0 m²/s² 0 0 1.69 0
13:00 88 J/kg -0.2 K 0 % 0 % 0 % 0 m²/s² 0 0 1.81 0
14:00 192 J/kg -0.6 K 0 % 0 % 0 % 0 m²/s² 0 0 1.68 0
15:00 316 J/kg -1.1 K 0 % 0 % 0 % 0 m²/s² 0 0 1.18 2
16:00 406 J/kg -1.4 K 0 % 0 % 0 % 0 m²/s² 0 0 0.7 2
17:00 566 J/kg -2.1 K 0 % 0 % 0 % 0 m²/s² 0 0 -0.06 2
18:00 703 J/kg -2.5 K 0 % 0 % 0 % 0 m²/s² 0 0 0.11 1
19:00 816 J/kg -2.9 K 0 % 0 % 0 % 0 m²/s² 0 0 -0.14 1
20:00 868 J/kg -3.0 K 0 % 0 % 0 % 0 m²/s² 0 0 -0.24 1
21:00 921 J/kg -2.9 K 0 % 0 % 0 % 0 m²/s² 0 0 0.19 1
22:00 439 J/kg -2.4 K 0 % 0 % 0 % 0 m²/s² 0 0 0.45 1
23:00 69 J/kg -1.8 K 0 % 0 % 0 % 0 m²/s² 0 0 1.29 1
 05:38     21:19    Daglengte: 15:41 Donderdag 19 Mei
00:00 0 J/kg -1.4 K 0 % 0 % 0 % 0 m²/s² 0 0 1.96 1
01:00 0 J/kg -0.7 K 0 % 0 % 0 % 0 m²/s² 0 0 3.32 2
02:00 0 J/kg -0.4 K 0 % 0 % 0 % 0 m²/s² 0 0 4.31 3
03:00 0 J/kg -1.2 K 0 % 0 % 0 % 0 m²/s² 0 0 3.36 3
04:00 0 J/kg -1.6 K 0 % 0 % 0 % 0 m²/s² 0 0 2.96 3
05:00 0 J/kg -2.0 K 0 % 0 % 0 % 0 m²/s² 0 0 1.9 3
06:00 0 J/kg -3.1 K 0 % 0 % 0 % 0 m²/s² 0 0 0.23 2
07:00 0 J/kg -3.3 K 0 % 0 % 0 % 0 m²/s² 0 0 -0.33 3
08:00 0 J/kg -1.6 K 0 % 0 % 0 % 0 m²/s² 0 0 0.83 3
09:00 0 J/kg -0.7 K 0 % 0 % 0 % 0 m²/s² 0 0 -0.22 3
10:00 10 J/kg -2.1 K 0 % 0 % 0 % 0 m²/s² 0 0 -1.26 3
11:00 81 J/kg -2.3 K 0 % 0 % 0 % 0 m²/s² 0 0 -1.4 3
12:00 275 J/kg -1.6 K 0 % 0 % 0 % 0 m²/s² 0 0 -1.6 3
13:00 266 J/kg -1.6 K 0 % 0 % 0 % 0 m²/s² 0 0 -1.3 3
14:00 1 J/kg 1.0 K 0 % 0 % 0 % 0 m²/s² 0 0 1.21 3
15:00 0 J/kg 0.5 K 0 % 0 % 0 % 0 m²/s² 0 0 0.98 2
16:00 130 J/kg -1.2 K 0 % 0 % 0 % 0 m²/s² 0 0 -0.06 80
17:00 549 J/kg -2.5 K 0 % 0 % 0 % 0 m²/s² 0 0 -1.3 80
18:00 1464 J/kg -5.3 K 0 % 0 % 0 % 0 m²/s² 0 0 -4.16 3
19:00 1796 J/kg -5.5 K 0 % 0 % 0 % 0 m²/s² 0 0 -4.3 3
20:00 416 J/kg -1.8 K 0 % 0 % 0 % 0 m²/s² 0 0 -0.48 80
21:00 727 J/kg -3.1 K 0 % 0 % 0 % 0 m²/s² 0 0 -1.33 81
22:00 872 J/kg -3.3 K 0 % 0 % 0 % 0 m²/s² 0 0 -0.99 3
23:00 951 J/kg -3.5 K 0 % 0 % 0 % 0 m²/s² 0 0 -1.22 3
 05:37     21:21    Daglengte: 15:44 Vrijdag 20 Mei
00:00 728 J/kg -2.9 K 0 % 0 % 0 % 0 m²/s² 0 0 -0.68 3
01:00 398 J/kg -1.8 K 0 % 0 % 0 % 0 m²/s² 0 0 1.47 45
02:00 428 J/kg -2.0 K 0 % 0 % 0 % 0 m²/s² 0 0 -1.88 45
03:00 418 J/kg -2.5 K 0 % 0 % 0 % 0 m²/s² 0 0 -0.04 45
04:00 404 J/kg -3.2 K 0 % 0 % 0 % 0 m²/s² 0 0 -1.16 45
05:00 378 J/kg -3.7 K 0 % 0 % 0 % 0 m²/s² 0 0 -1.45 80
06:00 296 J/kg -4.2 K 0 % 0 % 0 % 0 m²/s² 0 0 -3.21 3
07:00 317 J/kg -3.8 K 0 % 0 % 0 % 0 m²/s² 0 0 -2.69 80
08:00 476 J/kg -3.2 K 0 % 0 % 0 % 0 m²/s² 0 0 -0.74 2
09:00 457 J/kg -3.4 K 0 % 0 % 0 % 0 m²/s² 0 0 -1.42 3
10:00 166 J/kg 0.0 K 0 % 0 % 0 % 0 m²/s² 0 0 0.66 3
11:00 0 J/kg -1.2 K 0 % 0 % 0 % 0 m²/s² 0 0 -0.93 3
12:00 174 J/kg -2.0 K 0 % 0 % 0 % 0 m²/s² 0 0 -1.28 3
13:00 429 J/kg -2.5 K 0 % 0 % 0 % 0 m²/s² 0 0 -2.14 3
14:00 988 J/kg -3.8 K 0 % 0 % 0 % 0 m²/s² 0 0 -3.17 80
15:00 807 J/kg -2.9 K 0 % 0 % 0 % 0 m²/s² 0 0 -2.6
16:00 870 J/kg -3.2 K 0 % 0 % 0 % 0 m²/s² 0 0 -2.3
Temp Baro Wind Neerslag
  EWN Forecast EWN WRFDA DWD ICON FMI HIRLAM MET Norway GFS
 05:41     21:16    Daglengte: 15:35 Vandaag
17:00 24.8° 1019.4 hPa 1.8 m/s 0.0 mm 24.6° 1018.8 hPa 0.9 m/s 0.0 mm 23.0° 1020.1 hPa 2.7 m/s -2.0 mm 26.1° 1019.3 hPa 1.7 m/s 0.0 mm 23.9° 1019.5 hPa 1.4 m/s
20:00 24.0° 1018.9 hPa 1.8 m/s 0.0 mm 24.9° 1018.1 hPa 1.1 m/s 0.0 mm 21.7° 1019.2 hPa 1.7 m/s 0.0 mm 25.5° 1019.0 hPa 1.4 m/s 0.0 mm 22.2° 1019.0 hPa 1.7 m/s
23:00 20.9° 1019.9 hPa 3.1 m/s 0.0 mm 21.1° 1019.1 hPa 3.3 m/s 0.0 mm 18.5° 1020.0 hPa 1.7 m/s 0.0 mm 22.1° 1019.8 hPa 3.2 m/s 0.0 mm 17.6° 1020.1 hPa 2.3 m/s
 05:39     21:18    Daglengte: 15:39 Morgen
02:00 19.2° 1020.1 hPa 3.8 m/s 0.0 mm 18.4° 1019.6 hPa 3.8 m/s 0.0 mm 17.0° 1020.4 hPa 1.7 m/s 0.0 mm 19.6° 1019.9 hPa 4.3 m/s 0.0 mm 15.9° 1020.6 hPa 2.2 m/s
05:00 17.6° 1020.3 hPa 3.4 m/s 0.0 mm 17.0° 1020.2 hPa 3.4 m/s 0.0 mm 16.3° 1020.1 hPa 1.6 m/s 0.0 mm 17.9° 1020.2 hPa 4.8 m/s 0.0 mm 14.8° 1020.8 hPa 2.1 m/s
08:00 18.9° 1021.4 hPa 3.5 m/s 0.0 mm 19.5° 1021.1 hPa 3.2 m/s 0.0 mm 18.2° 1021.4 hPa 1.8 m/s 0.0 mm 19.8° 1020.7 hPa 4.7 m/s 0.0 mm 18.4° 1021.8 hPa 2.2 m/s
11:00 25.2° 1021.5 hPa 2.8 m/s 0.0 mm 24.5° 1021.6 hPa 1.1 m/s 0.0 mm 23.9° 1021.4 hPa 3.0 m/s 0.0 mm 26.8° 1021.2 hPa 2.6 m/s 0.0 mm 24.8° 1021.8 hPa 2.0 m/s
14:00 27.8° 1021.1 hPa 3.8 m/s 0.0 mm 27.7° 1020.6 hPa 3.3 m/s 0.0 mm 27.8° 1020.6 hPa 2.6 m/s 0.0 mm 26.6° 1021.3 hPa 6.0 m/s 0.0 mm 28.1° 1020.7 hPa 2.2 m/s
17:00 28.6° 1019.9 hPa 3.3 m/s 0.0 mm 28.2° 1019.7 hPa 3.6 m/s 0.2 mm 28.8° 1019.5 hPa 2.4 m/s 0.0 mm 26.5° 1021.1 hPa 3.4 m/s 0.0 mm 28.4° 1019.5 hPa 2.8 m/s
20:00 26.8° 1019.5 hPa 3.6 m/s 0.0 mm 27.5° 1019.1 hPa 2.5 m/s 1.0 mm 26.9° 1019.1 hPa 1.8 m/s 0.0 mm 25.2° 1021.0 hPa 4.0 m/s 0.0 mm 24.0° 1019.8 hPa 1.4 m/s
23:00 21.5° 1019.8 hPa 2.5 m/s 0.0 mm 24.0° 1019.3 hPa 3.4 m/s 2.0 mm 20.7° 1019.6 hPa 1.6 m/s 0.0 mm 20.9° 1021.2 hPa 2.3 m/s 0.0 mm 20.9° 1020.2 hPa 0.3 m/s
 05:38     21:19    Daglengte: 15:41 Donderdag 19 Mei
02:00 19.9° 1019.4 hPa 2.8 m/s 0.0 mm 22.0° 1018.4 hPa 4.9 m/s 2.0 mm 19.4° 1019.5 hPa 2.3 m/s 0.0 mm 18.0° 1020.2 hPa 1.5 m/s 0.0 mm 18.3° 1019.4 hPa 2.0 m/s
05:00 19.0° 1018.7 hPa 3.1 m/s 0.0 mm 20.4° 1018.0 hPa 4.6 m/s 2.0 mm 18.9° 1018.8 hPa 2.8 m/s 0.0 mm 15.8° 1019.8 hPa 1.7 m/s 0.0 mm 16.7° 1018.1 hPa 2.5 m/s
08:00 20.1° 1018.9 hPa 3.6 m/s 0.0 mm 21.7° 1018.3 hPa 5.0 m/s 2.0 mm 19.8° 1019.1 hPa 3.4 m/s 0.0 mm 18.5° 1019.3 hPa 1.3 m/s 0.0 mm 19.3° 1018.2 hPa 3.0 m/s
11:00 24.6° 1018.0 hPa 3.4 m/s 0.0 mm 24.7° 1017.5 hPa 3.2 m/s 3.2 mm 22.8° 1020.1 hPa 2.7 m/s 0.0 mm 22.1° 1019.2 hPa 0.3 m/s
14:00 27.1° 1018.6 hPa 2.6 m/s 0.0 mm 20.5° 1020.5 hPa 2.1 m/s 18.8 mm 27.0° 1018.8 hPa 3.7 m/s 0.0 mm 26.7° 1017.9 hPa 1.8 m/s
17:00 25.3° 1019.0 hPa 2.0 m/s 8.1 mm 25.5° 1019.3 hPa 0.5 m/s 25.7 mm 23.7° 1019.3 hPa 2.1 m/s 1.1 mm 26.4° 1018.0 hPa 3.3 m/s
20:00 23.4° 1019.6 hPa 2.6 m/s 9.4 mm 23.0° 1019.9 hPa 3.2 m/s 26.8 mm 23.2° 1019.8 hPa 3.0 m/s 0.7 mm 21.4° 1018.2 hPa 3.0 m/s
23:00 20.5° 1021.0 hPa 1.3 m/s 6.7 mm 20.8° 1021.0 hPa 1.2 m/s 27.8 mm 19.7° 1021.1 hPa 0.5 m/s 3.2 mm 18.1° 1020.3 hPa 2.0 m/s
 05:37     21:21    Daglengte: 15:44 Vrijdag 20 Mei
02:00 18.3° 1020.7 hPa 1.2 m/s 0.0 mm 19.5° 1021.0 hPa 1.7 m/s 29.1 mm 18.1° 1020.7 hPa 1.2 m/s 0.0 mm 18.0° 1020.9 hPa 1.1 m/s
05:00 17.6° 1019.6 hPa 1.1 m/s 10.1 mm 19.0° 1019.7 hPa 1.3 m/s 43.1 mm 17.4° 1020.1 hPa 1.2 m/s 0.6 mm 16.9° 1020.4 hPa 0.8 m/s
08:00 19.2° 1019.4 hPa 2.5 m/s 11.7 mm 20.2° 1018.4 hPa 4.7 m/s 50.0 mm 18.9° 1019.7 hPa 2.0 m/s 1.5 mm 18.0° 1020.1 hPa 0.7 m/s
11:00 22.2° 1017.9 hPa 2.6 m/s 0.0 mm 18.9° 1019.1 hPa 1.6 m/s 69.7 mm 23.0° 1017.7 hPa 2.9 m/s 0.0 mm 20.8° 1018.5 hPa 1.0 m/s
14:00 22.2° 1016.5 hPa 2.1 m/s 11.7 mm 22.8° 1017.5 hPa 3.9 m/s 85.1 mm 22.1° 1016.2 hPa 1.6 m/s 2.9 mm 20.0° 1016.0 hPa 3.6 m/s
17:00 26.0° 1016.0 hPa 7.8 m/s 90.8 mm 26.0° 1016.0 hPa 7.8 m/s 90.8 mm 18.3° 1017.5 hPa 4.0 m/s
20:00 21.3° 1017.1 hPa 6.1 m/s 92.8 mm 21.3° 1017.1 hPa 6.1 m/s 92.8 mm 15.4° 1018.3 hPa 2.7 m/s
23:00 13.8° 1020.1 hPa 2.5 m/s 11.9 mm 13.8° 1020.1 hPa 2.5 m/s 12.0 mm
 05:35     21:22    Daglengte: 15:47 Zaterdag 21 Mei
02:00 13.0° 1020.8 hPa 2.0 m/s 12.3 mm 13.0° 1020.8 hPa 2.0 m/s 12.3 mm
05:00 10.2° 1021.8 hPa 2.7 m/s 12.4 mm 10.2° 1021.8 hPa 2.7 m/s 12.4 mm
08:00 12.5° 1022.8 hPa 3.2 m/s 12.4 mm 12.5° 1022.8 hPa 3.2 m/s 12.4 mm
11:00 17.7° 1022.8 hPa 4.5 m/s 12.4 mm 17.7° 1022.8 hPa 4.5 m/s 12.4 mm
14:00 20.3° 1022.4 hPa 4.3 m/s 12.4 mm 20.3° 1022.4 hPa 4.3 m/s 12.4 mm
17:00 20.8° 1021.4 hPa 3.2 m/s 12.4 mm 20.8° 1021.4 hPa 3.2 m/s 12.4 mm
20:00 18.2° 1020.9 hPa 1.6 m/s 12.4 mm 18.2° 1020.9 hPa 1.6 m/s 12.4 mm
23:00 13.8° 1021.2 hPa 0.3 m/s 12.4 mm 13.8° 1021.2 hPa 0.3 m/s 12.4 mm
 05:34     21:23    Daglengte: 15:49 Zondag 22 Mei
02:00 11.8° 1020.4 hPa 1.1 m/s 12.4 mm 11.8° 1020.4 hPa 1.1 m/s 12.4 mm
05:00 10.7° 1018.2 hPa 2.0 m/s 12.4 mm 10.7° 1018.2 hPa 2.0 m/s 12.4 mm
08:00 14.4° 1016.2 hPa 2.8 m/s 12.4 mm 14.4° 1016.2 hPa 2.8 m/s 12.4 mm
11:00 20.4° 1014.8 hPa 2.8 m/s 12.4 mm 20.4° 1014.8 hPa 2.8 m/s 12.4 mm
14:00 19.7° 1010.7 hPa 3.0 m/s 12.4 mm 19.7° 1010.7 hPa 3.0 m/s 12.4 mm
17:00 20.7° 1009.7 hPa 3.6 m/s 12.5 mm 20.7° 1009.7 hPa 3.6 m/s 12.5 mm
20:00 17.3° 1008.1 hPa 1.7 m/s 13.2 mm 17.3° 1008.1 hPa 1.7 m/s 13.2 mm
23:00 15.7° 1008.6 hPa 0.6 m/s 13.5 mm 15.7° 1008.6 hPa 0.6 m/s 13.5 mm
 05:33     21:25    Daglengte: 15:52 Maandag 23 Mei
02:00 15.1° 1009.9 hPa 3.0 m/s 14.5 mm 15.1° 1009.9 hPa 3.0 m/s 14.5 mm
05:00 12.4° 1012.4 hPa 4.5 m/s 15.0 mm 12.4° 1012.4 hPa 4.5 m/s 15.0 mm
08:00 12.4° 1014.7 hPa 4.2 m/s 15.0 mm 12.4° 1014.7 hPa 4.2 m/s 15.0 mm
11:00 16.2° 1015.1 hPa 3.1 m/s 15.1 mm 16.2° 1015.1 hPa 3.1 m/s 15.1 mm
14:00 19.0° 1014.8 hPa 2.9 m/s 15.3 mm 19.0° 1014.8 hPa 2.9 m/s 15.3 mm
17:00 20.1° 1013.8 hPa 2.9 m/s 15.3 mm 20.1° 1013.8 hPa 2.9 m/s 15.3 mm
20:00 18.3° 1013.9 hPa 0.6 m/s 15.3 mm 18.3° 1013.9 hPa 0.6 m/s 15.3 mm
23:00 14.9° 1013.9 hPa 2.0 m/s 15.3 mm 14.9° 1013.9 hPa 2.0 m/s 15.3 mm
 05:32     21:26    Daglengte: 15:54 Dinsdag 24 Mei
02:00 14.1° 1014.1 hPa 1.6 m/s 15.3 mm 14.1° 1014.1 hPa 1.6 m/s 15.3 mm
05:00 14.5° 1014.2 hPa 1.0 m/s 15.3 mm 14.5° 1014.2 hPa 1.0 m/s 15.3 mm
08:00 15.8° 1014.9 hPa 0.9 m/s 15.3 mm 15.8° 1014.9 hPa 0.9 m/s 15.3 mm
11:00 19.5° 1014.9 hPa 1.5 m/s 15.3 mm 19.5° 1014.9 hPa 1.5 m/s 15.3 mm
14:00 20.7° 1014.7 hPa 3.3 m/s 15.4 mm 20.7° 1014.7 hPa 3.3 m/s 15.4 mm
20:00 19.6° 1014.1 hPa 1.8 m/s 15.4 mm 19.6° 1014.1 hPa 1.8 m/s 15.4 mm
 05:31     21:27    Daglengte: 15:56 Woensdag 25 Mei
02:00 13.7° 1014.8 hPa 1.1 m/s 15.4 mm 13.7° 1014.8 hPa 1.1 m/s 15.4 mm
08:00 17.2° 1013.9 hPa 1.9 m/s 15.4 mm 17.2° 1013.9 hPa 1.9 m/s 15.4 mm
14:00 27.8° 1011.6 hPa 3.1 m/s 15.4 mm 27.8° 1011.6 hPa 3.1 m/s 15.4 mm
20:00 26.2° 1008.8 hPa 2.0 m/s 15.4 mm 26.2° 1008.8 hPa 2.0 m/s 15.4 mm
 05:30     21:28    Daglengte: 15:58 Donderdag 26 Mei
02:00 20.6° 1006.7 hPa 2.4 m/s 15.5 mm 20.6° 1006.7 hPa 2.4 m/s 15.5 mm
08:00 18.7° 1010.8 hPa 4.5 m/s 19.2 mm 18.7° 1010.8 hPa 4.5 m/s 19.2 mm
14:00 15.1° 1016.5 hPa 4.6 m/s 20.5 mm 15.1° 1016.5 hPa 4.6 m/s 20.5 mm
20:00 15.2° 1019.1 hPa 3.8 m/s 25.0 mm 15.2° 1019.1 hPa 3.8 m/s 25.0 mm
 05:29     21:30    Daglengte: 16:01 Vrijdag 27 Mei
02:00 11.5° 1023.6 hPa 2.0 m/s 25.2 mm 11.5° 1023.6 hPa 2.0 m/s 25.2 mm
08:00 12.8° 1025.7 hPa 1.4 m/s 25.2 mm 12.8° 1025.7 hPa 1.4 m/s 25.2 mm
14:00 21.4° 1017.9 hPa 1.6 m/s 0.3 mm
20:00 19.7° 1017.5 hPa 1.0 m/s 0.4 mm
 05:28     21:31    Daglengte: 16:03 Zaterdag 28 Mei
02:00 13.9° 1018.9 hPa 0.5 m/s 0.2 mm
08:00 14.9° 1018.8 hPa 0.5 m/s 0.1 mm
14:00 22.4° 1017.5 hPa 0.9 m/s 0.4 mm
20:00 20.2° 1016.5 hPa 0.2 m/s 0.5 mm
 05:27     21:32    Daglengte: 16:05 Zondag 29 Mei
02:00 14.7° 1017.3 hPa 0.4 m/s 0.7 mm
08:00 15.0° 1017.9 hPa 0.9 m/s 1.1 mm
14:00 21.4° 1017.3 hPa 1.5 m/s 0.8 mm
20:00 18.6° 1017.3 hPa 1.6 m/s 1.5 mm
 05:26     21:33    Daglengte: 16:07 Maandag 30 Mei
02:00 13.3° 1018.9 hPa 0.8 m/s 1.8 mm
08:00 14.2° 1019.1 hPa 0.8 m/s 0.4 mm
14:00 20.9° 1018.1 hPa 1.6 m/s 0.3 mm
20:00 19.0° 1017.3 hPa 1.4 m/s 0.4 mm
 05:26     21:34    Daglengte: 16:08 Dinsdag 31 Mei
02:00 13.3° 1018.6 hPa 0.5 m/s 0.3 mm
08:00 14.3° 1018.6 hPa 0.6 m/s 0.3 mm
14:00 20.4° 1017.4 hPa 1.2 m/s 0.5 mm
20:00 18.4° 1016.7 hPa 1.1 m/s 0.7 mm
 05:25     21:35    Daglengte: 16:10 Woensdag 01 Jun
02:00 12.5° 1018.3 hPa 0.2 m/s 0.1 mm
08:00 13.9° 1018.4 hPa 0.6 m/s 0.2 mm
14:00 21.2° 1017.3 hPa 1.1 m/s 0.7 mm
FMI Hirlam - 7.5 km EWN WRFDA - 12 km DWD ICON - 7 km GFS - 25 km Basiskaart






























































Updatetijd (Europe/Brussels) Resolutie Lengte Stap
FMI Hirlam 14:00, 20:00, 02:00, 08:00 7.5 km 49h 1h
EWN WRFDA 16:15, 22:15, 04:15, 10:15 12 km 73h 1h
DWD ICON 11:45, 17:45, 23:45, 05:45 7 km 75h 1h
GFS 14:15, 20:15, 02:15, 08:15 25 km 237h 3h
30+ mm
25-30 mm
20-25 mm
15-20 mm
10-15 mm
6-10 mm
4-6 mm
2-4 mm
1-2 mm
0.5-1 mm
0.2-0.5 mm
0.1-0.2 mm
30+ mm
25-30 mm
20-25 mm
15-20 mm
10-15 mm
6-10 mm
4-6 mm
2-4 mm
1-2 mm
0.5-1 mm
0.2-0.5 mm
0.1-0.2 mm
Sneeuwval
Natte sneeuw
Hagel
Vorst
30+ mm
25-30 mm
20-25 mm
15-20 mm
10-15 mm
6-10 mm
4-6 mm
2-4 mm
1-2 mm
0.5-1 mm
0.2-0.5 mm
0.1-0.2 mm
Sneeuwval
Natte sneeuw
Hagel
Vorst
Onweer
50 mm
40 mm
30 mm
26 mm
22 mm
18 mm
14 mm
10 mm
9 mm
8 mm
7 mm
6 mm
5 mm
4.5 mm
4 mm
3.5 mm
3 mm
2.5 mm
2 mm
1.5 mm
1 mm
0.8 mm
0.6 mm
0.4 mm
0.2 mm
0.05 mm
35°
30°
25°
20°
15°
10°
-5°
-10°
-15°
-20°
-25°
-30°
-35°
33> m/s
29 m/s
25 m/s
21 m/s
17 m/s
14 m/s
11 m/s
8 m/s
5 m/s
3 m/s
0 m/s
2600 J/kg
2400 J/kg
2200 J/kg
2000 J/kg
1800 J/kg
1600 J/kg
1400 J/kg
1200 J/kg
1000 J/kg
800 J/kg
600 J/kg
400 J/kg
200 J/kg
70 dBZ
65 dBZ
60 dBZ
55 dBZ
50 dBZ
45 dBZ
40 dBZ
35 dBZ
30 dBZ
25 dBZ
20 dBZ
15 dBZ
10 dBZ
5 dBZ
-1 K
-2 K
-3 K
-4 K
-5 K
-6 K
-7 K
-8 K
-9 K
950 m²/s²
900 m²/s²
850 m²/s²
800 m²/s²
750 m²/s²
700 m²/s²
650 m²/s²
600 m²/s²
550 m²/s²
500 m²/s²
450 m²/s²
400 m²/s²
350 m²/s²
300 m²/s²
250 m²/s²
200 m²/s²
150 m²/s²
100 m²/s²
46 m/s
44 m/s
42 m/s
40 m/s
38 m/s
36 m/s
34 m/s
32 m/s
30 m/s
28 m/s
26 m/s
24 m/s
22 m/s
20 m/s
16 m/s
12 m/s
8 m/s
4 m/s
30 m/s
28 m/s
26 m/s
24 m/s
22 m/s
20 m/s
18 m/s
16 m/s
14 m/s
12 m/s
10 m/s
8 m/s
6 m/s
4 m/s
2 m/s
3.0
2.8
2.6
2.4
2.2
2.0
1.8
1.6
1.4
1.2
1.0
0.8
0.6
0.4
0.2
15
14
13
12
11
10
9
8
7
6
5
4
3
2
1
90%
80%
70%
60%
50%
40%
30%
20%
10%
42
40
38
36
34
32
30
28
26
24
22
20
18
16
14
12
90+ cm
80-90 cm
70-80 cm
60-70 cm
50-60 cm
40-50 cm
30-40 cm
20-30 cm
10-20 cm
1-10 cm
Sneeuwval
Natte sneeuw
Regen
>120 mm
115 mm
110 mm
105 mm
100 mm
95 mm
90 mm
85 mm
80 mm
75 mm
70 mm
65 mm
60 mm
55 mm
50 mm
45 mm
45 mm
40 mm
35 mm
30 mm
25 mm
20 mm
15 mm
10 mm
5 mm
0.1 mm
960 hPa
880 hPa
800 hPa
720 hPa
640 hPa
560 hPa
584 gpdm
568 gpdm
552 gpdm
536 gpdm
520 gpdm
504 gpdm
488 gpdm
Extreem zwaar Noodweer Kans op onweer
15% 15% 5% 50% 15%

Dag




Kaart






35°
30°
25°
20°
15°
10°
-5°
-10°
-15°
-20°
-25°
-30°
-35°
33> m/s
29 m/s
25 m/s
21 m/s
17 m/s
14 m/s
11 m/s
8 m/s
5 m/s
3 m/s
0 m/s
Extreem zwaar Noodweer Kans op onweer
15% 15% 5% 50% 15%